GW3823 Weather Reports


Display with metric or nautical units.
time (UTC)temp
F
wind
direction
speed
MPH
gust
MPH
rain 1hr
in
rain 24hr
in
rain mn
in
humidity
%
barometer
mb
20260509172806 66 139 2.0 14.0 0.00 0.00 0.00 33 1009.7
20260509172307 66 171 6.0 17.0 0.00 0.00 0.00 33 1009.9
20260509171806 66 179 5.0 24.0 0.00 0.00 0.00 33 1009.8
20260509171306 66 204 5.0 25.0 0.00 0.00 0.00 35 1009.7
20260509170805 66 199 7.0 20.0 0.00 0.00 0.00 33 1009.7
20260509170306 66 173 5.0 20.0 0.00 0.00 0.00 31 1018.1
20260509165307 57 152 13.0 25.0 0.00 0.00 0.00 33 1015.9
20260509164806 57 179 10.0 25.0 0.00 0.00 0.00 33 1009.9
20260509164305 58 267 4.0 16.0 0.00 0.00 0.00 32 1009.9
20260509163806 58 73 5.0 23.0 0.00 0.00 0.00 33 1010.1
20260509163306 58 154 13.0 23.0 0.00 0.00 0.00 32 1009.7
20260509162307 56 153 9.0 17.0 0.00 0.00 0.00 34 1010.0
20260509161806 57 161 3.0 18.0 0.00 0.00 0.00 34 1014.3
20260509161306 58 202 6.0 22.0 0.00 0.00 0.00 32 1009.9
20260509160805 57 176 5.0 22.0 0.00 0.00 0.00 33 1019.3
20260509160306 57 174 8.0 18.0 0.00 0.00 0.00 34 1009.9
20260509155806 56 147 10.0 21.0 0.00 0.00 0.00 36 1009.7
20260509155306 56 178 6.0 18.0 0.00 0.00 0.00 38 1009.8
20260509154806 55 154 5.0 22.0 0.00 0.00 0.00 38 1009.9
20260509154305 55 153 9.0 22.0 0.00 0.00 0.00 37 1009.9
20260509153806 55 183 5.0 22.0 0.00 0.00 0.00 37 1009.8
20260509153305 55 173 10.0 24.0 0.00 0.00 0.00 36 1009.9
20260509152806 55 160 9.0 24.0 0.00 0.00 0.00 37 1009.8
20260509152306 54 168 9.0 30.0 0.00 0.00 0.00 37 1016.3
20260509151805 54 185 5.0 26.0 0.00 0.00 0.00 37 1009.9
20260509151305 54 157 16.0 26.0 0.00 0.00 0.00 39 1016.0
20260509150806 54 162 10.0 16.0 0.00 0.00 0.00 39 1010.0
20260509150305 52 157 4.0 10.0 0.00 0.00 0.00 42 1016.2
20260509145806 50 169 3.0 5.0 0.00 0.00 0.00 49 1010.1
20260509145306 49 93 2.0 6.0 0.00 0.00 0.00 51 1018.1
20260509144806 47 147 3.0 5.0 0.00 0.00 0.00 53 1010.3
20260509144305 46 165 3.0 6.0 0.00 0.00 0.00 54 1019.7
20260509143806 45 139 5.0 6.0 0.00 0.00 0.00 55 1010.4
20260509143306 45 160 2.0 5.0 0.00 0.00 0.00 57 1010.4
20260509142805 45 148 2.0 6.0 0.00 0.00 0.00 57 1010.3
20260509142307 45 165 2.0 6.0 0.00 0.00 0.00 58 1010.5
20260509141306 44 18 2.0 5.0 0.00 0.00 0.00 58 1010.4
20260509135805 42 147 2.0 2.0 0.00 0.00 0.00 63 1010.5
20260509134305 41 199 0.0 5.0 0.00 0.00 0.00 63 1010.7
20260509133806 41 44 2.0 5.0 0.00 0.00 0.00 61 1010.7
20260509133306 40 54 4.0 8.0 0.00 0.00 0.00 61 1010.8
20260509132805 40 29 3.0 6.0 0.00 0.00 0.00 62 1015.5
20260509132306 40 46 5.0 8.0 0.00 0.00 0.00 63 1010.9
20260509131805 40 65 5.0 8.0 0.00 0.00 0.00 63 1019.7
20260509131306 40 49 5.0 8.0 0.00 0.00 0.00 63 1010.8
20260509130805 39 70 6.0 13.0 0.00 0.00 0.00 63 1015.8
20260509130305 39 71 7.0 13.0 0.00 0.00 0.00 65 1010.8
20260509125806 39 70 6.0 9.0 0.00 0.00 0.00 65 1018.4
20260509125308 39 69 6.0 12.0 0.00 0.00 0.00 67 1010.5
20260509124805 38 41 6.0 12.0 0.00 0.00 0.00 66 1015.2
20260509124305 39 43 4.0 8.0 0.00 0.00 0.00 67 1010.6
20260509123806 38 33 5.0 6.0 0.00 0.00 0.00 68 1018.6
20260509121806 38 65 5.0 9.0 0.00 0.00 0.00 67 1010.1
20260509121305 38 72 5.0 8.0 0.00 0.00 0.00 67 1010.1
20260509120805 39 71 4.0 8.0 0.00 0.00 0.00 67 1010.0
20260509120306 40 55 5.0 8.0 0.00 0.00 0.00 67 1010.0
20260509115806 39 62 6.0 12.0 0.00 0.00 0.00 65 1010.0
20260509114805 39 49 5.0 7.0 0.00 0.00 0.00 66 1010.0
20260509114305 40 61 3.0 9.0 0.00 0.00 0.00 66 1010.0
20260509113305 40 58 7.0 9.0 0.00 0.00 0.00 67 1014.0
20260509112805 40 44 6.0 8.0 0.00 0.00 0.00 64 1010.0
20260509112307 40 56 4.0 7.0 0.00 0.00 0.00 64 1015.3
20260509111306 41 55 3.0 9.0 0.00 0.00 0.00 65 1015.8
20260509110806 41 64 6.0 9.0 0.00 0.00 0.00 66 1010.1
20260509110306 40 40 6.0 8.0 0.00 0.00 0.00 66 1009.8
20260509105806 41 46 6.0 9.0 0.00 0.00 0.00 65 1009.8
20260509105306 41 46 5.0 13.0 0.00 0.00 0.00 63 1009.9
20260509104806 41 54 6.0 13.0 0.00 0.00 0.00 62 1009.7
20260509104305 41 62 7.0 9.0 0.00 0.00 0.00 63 1009.9
20260509103805 42 39 5.0 9.0 0.00 0.00 0.00 63 1018.0
20260509103305 42 55 5.0 10.0 0.00 0.00 0.00 62 1009.8
20260509102306 43 30 2.0 7.0 0.00 0.00 0.00 63 1009.8
20260509101805 42 49 5.0 7.0 0.00 0.00 0.00 62 1009.6
20260509101306 42 26 2.0 9.0 0.00 0.00 0.00 62 1009.8
20260509100305 42 44 3.0 5.0 0.00 0.00 0.00 61 1009.7
20260509095306 43 78 3.0 6.0 0.00 0.00 0.00 65 1009.9
20260509094805 43 54 3.0 5.0 0.00 0.00 0.00 63 1009.7
20260509094306 44 31 3.0 7.0 0.00 0.00 0.00 60 1009.6
20260509093805 44 66 4.0 7.0 0.00 0.00 0.00 59 1009.7
20260509093305 43 72 4.0 6.0 0.00 0.00 0.00 60 1009.4
20260509092805 43 61 1.0 5.0 0.00 0.00 0.00 63 1009.5
20260509092306 43 45 2.0 3.0 0.00 0.00 0.00 64 1009.7
20260509091806 44 325 0.0 1.0 0.00 0.00 0.00 64 1009.5
20260509091305 44 186 0.0 0.0 0.00 0.00 0.00 54 1014.3
20260509090805 44 124 0.0 0.0 0.00 0.00 0.00 63 1009.5
20260509090305 44 135 0.0 1.0 0.00 0.00 0.00 61 1014.7
20260509085805 44 69 0.0 1.0 0.00 0.00 0.00 50 1009.7
20260509085306 46 0 1.0 1.0 0.00 0.00 0.00 62 1009.4
20260509084805 44 349 1.0 1.0 0.00 0.00 0.00 52 1009.6
20260509084306 45 204 0.0 2.0 0.00 0.00 0.00 61 1009.5
20260509083806 45 23 1.0 2.0 0.00 0.00 0.00 54 1009.6
20260509083305 45 27 0.0 2.0 0.00 0.00 0.00 59 1009.6
20260509082805 45 348 1.0 5.0 0.00 0.00 0.00 58 1013.0
20260509082307 46 25 3.0 5.0 0.00 0.00 0.00 55 1009.5
20260509081305 46 71 2.0 6.0 0.00 0.00 0.00 56 1009.6
20260509075805 47 72 1.0 2.0 0.00 0.00 0.00 59 1009.5
20260509075306 46 38 1.0 2.0 0.00 0.00 0.00 58 1009.5
20260509074306 45 109 0.0 3.0 0.00 0.00 0.00 58 1009.7
20260509072306 46 81 1.0 5.0 0.00 0.00 0.00 57 1009.7
20260509071805 47 38 2.0 5.0 0.00 0.00 0.00 55 1009.7
20260509071305 47 59 4.0 6.0 0.00 0.00 0.00 51 1009.7
20260509070806 48 33 2.0 6.0 0.00 0.00 0.00 53 1009.8
20260509070305 48 55 5.0 7.0 0.00 0.00 0.00 52 1009.6
20260509065805 48 47 5.0 10.0 0.00 0.00 0.00 49 1009.7
20260509064305 48 54 4.0 7.0 0.00 0.00 0.00 48 1009.5
20260509063805 48 60 5.0 7.0 0.00 0.00 0.00 41 1009.6
20260509063305 48 61 3.0 8.0 0.00 0.00 0.00 48 1009.4
20260509062306 49 26 3.0 8.0 0.00 0.00 0.00 53 1009.4
20260509061305 49 49 6.0 10.0 0.00 0.00 0.00 49 1009.4
20260509060805 49 64 5.0 9.0 0.00 0.00 0.00 51 1009.3
20260509060305 49 44 7.0 10.0 0.00 0.00 0.00 48 1009.5
20260509055805 49 61 6.0 8.0 0.00 0.00 0.00 52 1009.5
20260509054805 49 40 5.0 8.0 0.00 0.00 0.00 52 1009.3
20260509054305 49 49 4.0 7.0 0.00 0.00 0.00 46 1009.5
20260509053805 50 56 5.0 8.0 0.00 0.00 0.00 51 1009.5
20260509052805 49 60 5.0 6.0 0.00 0.00 0.00 50 1009.5
20260509052307 49 58 4.0 7.0 0.00 0.00 0.00 52 1013.6
20260509051805 50 57 4.0 8.0 0.00 0.00 0.00 51 1009.6
20260509051305 50 22 3.0 6.0 0.00 0.00 0.00 52 1009.5
20260509050805 50 41 3.0 7.0 0.00 0.00 0.00 53 1009.7
20260509050305 49 57 5.0 7.0 0.00 0.00 0.00 51 1009.6
20260509045306 51 59 5.0 7.0 0.00 0.00 0.00 51 1011.1
20260509044805 51 25 5.0 7.0 0.00 0.00 0.00 32 1012.1
20260509044304 50 51 3.0 7.0 0.00 0.00 0.00 51 1017.1
20260509043305 52 23 2.0 5.0 0.00 0.00 0.00 50 1009.5
20260509042805 51 67 3.0 8.0 0.00 0.00 0.00 49 1010.8
20260509042307 50 56 6.0 9.0 0.00 0.00 0.00 49 1009.5
20260509041805 50 49 7.0 10.0 0.00 0.00 0.00 49 1009.6
20260509041305 52 50 7.0 13.0 0.00 0.00 0.00 49 1011.3
20260509040805 51 61 6.0 10.0 0.00 0.00 0.00 50 1010.9
20260509040305 53 67 8.0 9.0 0.00 0.00 0.00 50 1017.1
20260509035805 50 55 6.0 14.0 0.00 0.00 0.00 38 1009.8
20260509035306 53 60 6.0 15.0 0.00 0.00 0.00 48 1011.3
20260509033806 51 57 11.0 18.0 0.00 0.00 0.00 37 1010.0
20260509033305 53 78 5.0 8.0 0.00 0.00 0.00 49 1011.1
20260509032805 53 48 5.0 8.0 0.00 0.00 0.00 38 1010.7
20260509032306 52 65 4.0 8.0 0.00 0.00 0.00 48 1010.0
20260509031805 52 37 2.0 5.0 0.00 0.00 0.00 48 1009.6
20260509031305 54 57 1.0 3.0 0.00 0.00 0.00 48 1010.9
20260509030805 54 11 1.0 3.0 0.00 0.00 0.00 47 1010.4
20260509030305 54 330 1.0 5.0 0.00 0.00 0.00 47 1009.8
20260509024804 56 288 1.0 6.0 0.00 0.00 0.00 46 1010.3
20260509024305 55 54 4.0 5.0 0.00 0.00 0.00 46 1009.7
20260509023805 55 27 1.0 2.0 0.00 0.00 0.00 44 1009.4
20260509022805 58 165 1.0 3.0 0.00 0.00 0.00 42 1010.4
20260509021805 58 19 1.0 7.0 0.00 0.00 0.00 38 1009.6
20260509021305 58 72 5.0 10.0 0.00 0.00 0.00 36 1009.1
20260509020304 58 248 2.0 13.0 0.00 0.00 0.00 35 1008.4
20260509015805 61 72 9.0 12.0 0.00 0.00 0.00 35 1009.8
20260509015306 60 31 3.0 5.0 0.00 0.00 0.00 36 1009.3
20260509014804 60 206 1.0 6.0 0.00 0.00 0.00 36 1008.8
20260509014305 59 231 1.0 5.0 0.00 0.00 0.00 28 1008.1
20260509013804 62 216 3.0 8.0 0.00 0.00 0.00 34 1009.8
20260509013304 61 65 5.0 7.0 0.00 0.00 0.00 33 1008.9
20260509012804 61 60 3.0 7.0 0.00 0.00 0.00 31 1008.8
20260509012307 60 38 1.0 6.0 0.00 0.00 0.00 34 1007.9
20260509011805 63 39 3.0 5.0 0.00 0.00 0.00 32 1009.8
20260509010804 62 9 2.0 5.0 0.00 0.00 0.00 32 1008.9
20260509010305 61 193 1.0 8.0 0.00 0.00 0.00 29 1008.3
20260509005805 63 167 3.0 8.0 0.00 0.00 0.00 20 1009.7
20260509005306 62 308 2.0 7.0 0.00 0.00 0.00 30 1009.3
20260509004305 62 264 5.0 15.0 0.00 0.00 0.00 28 1008.4
20260509003305 63 141 7.0 17.0 0.00 0.00 0.00 26 1008.3
20260509002306 65 259 4.0 10.0 0.00 0.00 0.00 26 1008.3
20260509001806 66 149 1.0 5.0 0.00 0.00 0.00 25 1009.1
20260509001304 64 190 2.0 13.0 0.00 0.00 0.00 26 1007.5
20260509000306 65 217 5.0 8.0 0.00 0.00 0.00 25 1009.7
20260508235806 72 181 7.0 8.0 0.00 0.00 0.00 26 1007.9
20260508235306 71 181 7.0 12.0 0.00 0.00 0.00 26 1012.8
20260508234805 71 198 6.0 21.0 0.00 0.00 0.00 26 1008.2
20260508234306 71 162 6.0 15.0 0.00 0.00 0.00 26 1007.9
20260508233805 72 156 6.0 15.0 0.00 0.00 0.00 27 1007.7
20260508233305 72 186 15.0 15.0 0.00 0.00 0.00 20 1007.9
20260508232805 72 186 15.0 15.0 0.00 0.00 0.00 20 1014.7
20260508232307 72 186 15.0 15.0 0.00 0.00 0.00 20 1007.8
20260508231805 72 186 15.0 15.0 0.00 0.00 0.00 20 1012.6
20260508231305 71 186 15.0 15.0 0.00 0.00 0.00 20 1007.8
20260508230805 72 186 15.0 15.0 0.00 0.00 0.00 25 1007.8
20260508230305 71 186 15.0 15.0 0.00 0.00 0.00 26 1007.8
20260508225805 72 186 15.0 15.0 0.00 0.00 0.00 27 1007.9
20260508225306 72 186 15.0 15.0 0.00 0.00 0.00 25 1012.7
20260508223805 72 186 15.0 15.0 0.00 0.00 0.00 25 1007.6
20260508223306 72 186 15.0 15.0 0.00 0.00 0.00 26 1007.8
20260508222805 71 186 15.0 15.0 0.00 0.00 0.00 26 1007.7
20260508221805 72 186 15.0 15.0 0.00 0.00 0.00 25 1007.7
20260508220804 72 132 5.0 18.0 0.00 0.00 0.00 26 1007.6
20260508220305 71 147 9.0 18.0 0.00 0.00 0.00 27 1007.8
20260508214805 71 160 10.0 24.0 0.00 0.00 0.00 26 1015.2
20260508214305 71 208 10.0 29.0 0.00 0.00 0.00 26 1007.8
20260508213805 71 228 9.0 14.0 0.00 0.00 0.00 27 1012.0
20260508212805 71 146 9.0 15.0 0.00 0.00 0.00 26 1012.3
20260508212306 71 156 7.0 15.0 0.00 0.00 0.00 27 1008.1
20260508211805 71 203 5.0 21.0 0.00 0.00 0.00 30 1008.1
20260508211305 70 192 5.0 21.0 0.00 0.00 0.00 31 1008.1
20260508210305 70 150 10.0 21.0 0.00 0.00 0.00 28 1008.1
20260508205804 70 168 7.0 14.0 0.00 0.00 0.00 29 1008.2
20260508205306 70 326 3.0 14.0 0.00 0.00 0.00 27 1008.3
20260508204805 70 198 5.0 28.0 0.00 0.00 0.00 25 1008.2
20260508204305 70 160 10.0 28.0 0.00 0.00 0.00 26 1008.0
20260508203805 70 160 5.0 24.0 0.00 0.00 0.00 29 1008.3
20260508203305 70 182 15.0 24.0 0.00 0.00 0.00 20 1008.4
20260508202805 70 85 6.0 16.0 0.00 0.00 0.00 27 1008.4
20260508201804 70 71 5.0 13.0 0.00 0.00 0.00 26 1008.4
20260508201305 70 24 4.0 12.0 0.00 0.00 0.00 29 1008.5
20260508200805 70 256 3.0 12.0 0.00 0.00 0.00 29 1008.5
20260508200305 70 172 6.0 14.0 0.00 0.00 0.00 30 1008.6
20260508195306 67 168 10.0 22.0 0.00 0.00 0.00 28 1008.6
20260508194805 67 179 7.0 20.0 0.00 0.00 0.00 30 1008.6
20260508194305 67 254 4.0 21.0 0.00 0.00 0.00 29 1017.2
20260508193805 67 161 9.0 21.0 0.00 0.00 0.00 30 1008.6
20260508193305 60 315 5.0 10.0 0.00 0.00 0.00 30 1008.7
20260508192805 67 151 3.0 20.0 0.00 0.00 0.00 24 1008.7
20260508191804 66 151 7.0 13.0 0.00 0.00 0.00 31 1008.8
20260508191305 66 183 7.0 16.0 0.00 0.00 0.00 31 1009.0
20260508190805 66 168 7.0 13.0 0.00 0.00 0.00 33 1017.3
20260508190304 66 200 5.0 25.0 0.00 0.00 0.00 30 1008.9
20260508185805 65 163 12.0 25.0 0.00 0.00 0.00 30 1008.9
20260508185306 65 160 9.0 23.0 0.00 0.00 0.00 31 1009.0
20260508184804 65 147 9.0 17.0 0.00 0.01 0.00 32 1008.9
20260508182804 65 141 9.0 24.0 0.00 0.01 0.00 32 1009.3
20260508182306 65 127 3.0 16.0 0.00 0.01 0.00 31 1009.2
20260508181805 65 174 7.0 22.0 0.00 0.01 0.00 34 1009.3
20260508181305 65 192 7.0 22.0 0.00 0.01 0.00 31 1009.4
20260508180805 65 160 6.0 15.0 0.00 0.01 0.00 30 1009.4
20260508180305 65 199 4.0 13.0 0.00 0.01 0.00 32 1009.4
20260508175805 63 242 3.0 20.0 0.00 0.01 0.00 32 1014.6
20260508175306 63 148 10.0 17.0 0.00 0.01 0.00 32 1009.8
20260508174805 63 156 10.0 22.0 0.00 0.01 0.00 31 1009.6
20260508174304 63 220 8.0 16.0 0.00 0.01 0.00 32 1009.6
20260508173805 63 165 9.0 14.0 0.00 0.01 0.00 31 1009.6
20260508173304 63 191 5.0 18.0 0.00 0.01 0.00 33 1009.8